User: anonymous   Login
Location: Unspecified
(0.0000°N, 0.0000°E)
Time: 20:32:23
(UTC+00:00)
Language:

BREEZE-M R/B - Orbit

View from above orbital plane
View from above orbital plane
View from above satellite
View from above satellite

Ground track
Ground track

The orbit data is extracted from the following two-line orbital elements,

1 39173U 13026B   20194.79814673 -.00000017 +00000-0 +00000-0 0  9995
2 39173 024.1375 151.2734 7525937 228.9123 036.7668 01.10514818028336
Epoch (UTC): 12 July 2020 19:09:19
Eccentricity: 0.7525937
inclination: 24.1375°
perigee height: 3398 km
apogee height: 62879 km
right ascension of ascending node: 151.2734°
argument of perigee: 228.9123°
revolutions per day: 1.10514818
mean anomaly at epoch: 36.7668°
orbit number at epoch: 2833

The dashed part of the orbit path shows where the satellite is in the earth's shadow,  

DLR